YJV1497 SKBO-SAEZ

Flight info

Callsign YJV1497
Flight time N/A
Altitude 39000
Route BOGU4CXSJE/14R BOGUS8A SJE UP525 RCO UN525 CITRA/N0484F410 UN525 PAPEK UM784 LOKOX UL417 TOPOG UL404 ISOPO UT672 MULTA UW24 SNT SNT7U
Aircraft A359/H-SDE2E3GHIJ3J4J5LM1ORWXY/LB1D1

Departure

Time N/A
Airport El Dorado International Airport (SKBO)

Arrival

Time 2026-05-03 20:23
Airport Ezeiza International Airport - Ministro Pistarini (SAEZ)
Time Latitude Longitude Altitude Speed Heading
2026-05-03 20:15 -35.08567 -58.59377 5084 ft 223 kts 86°
2026-05-03 20:15 -35.08536 -58.57480 5088 ft 223 kts 86°
2026-05-03 20:15 -35.08490 -58.55583 5088 ft 223 kts 85°
2026-05-03 20:15 -35.08433 -58.53688 5087 ft 223 kts 85°
2026-05-03 20:16 -35.08371 -58.51822 5083 ft 223 kts 85°
2026-05-03 20:16 -35.08306 -58.49963 4933 ft 217 kts 85°
2026-05-03 20:16 -35.08159 -58.48124 4590 ft 216 kts 74°
2026-05-03 20:16 -35.07510 -58.46533 4395 ft 206 kts 44°
2026-05-03 20:17 -35.06377 -58.45583 4239 ft 195 kts 15°
2026-05-03 20:17 -35.05073 -58.45290 4115 ft 188 kts 358°
2026-05-03 20:17 -35.03790 -58.45455 3981 ft 184 kts 343°
2026-05-03 20:17 -35.02555 -58.45857 3843 ft 184 kts 340°
2026-05-03 20:18 -35.01326 -58.46259 3625 ft 182 kts 341°
2026-05-03 20:18 -35.00112 -58.46680 3509 ft 180 kts 340°
2026-05-03 20:18 -34.98925 -58.47087 3312 ft 174 kts 341°
2026-05-03 20:18 -34.97787 -58.47479 3087 ft 170 kts 341°
2026-05-03 20:19 -34.96675 -58.47870 2844 ft 161 kts 342°
2026-05-03 20:19 -34.95630 -58.48234 2620 ft 151 kts 343°
2026-05-03 20:19 -34.94667 -58.48568 2423 ft 137 kts 344°
2026-05-03 20:19 -34.93781 -58.48877 2246 ft 127 kts 344°
2026-05-03 20:20 -34.92949 -58.49169 2084 ft 123 kts 345°
2026-05-03 20:20 -34.92122 -58.49456 1909 ft 123 kts 345°
2026-05-03 20:20 -34.91311 -58.49741 1752 ft 123 kts 345°
2026-05-03 20:20 -34.90487 -58.50031 1576 ft 123 kts 345°
2026-05-03 20:21 -34.89661 -58.50317 1423 ft 123 kts 345°
2026-05-03 20:21 -34.88841 -58.50603 1263 ft 123 kts 346°
2026-05-03 20:21 -34.88014 -58.50893 1085 ft 123 kts 345°
2026-05-03 20:21 -34.87188 -58.51181 905 ft 123 kts 345°
2026-05-03 20:22 -34.86355 -58.51473 740 ft 126 kts 345°
2026-05-03 20:22 -34.85503 -58.51768 572 ft 126 kts 346°
2026-05-03 20:22 -34.84685 -58.52054 397 ft 122 kts 346°
2026-05-03 20:22 -34.83865 -58.52323 252 ft 123 kts 348°
2026-05-03 20:23 -34.83036 -58.52602 119 ft 123 kts 340°
2026-05-03 20:23 -34.82292 -58.52889 93 ft 79 kts 342°
2026-05-03 20:23 -34.82047 -58.52974 91 ft 4 kts 342°
2026-05-03 20:23 -34.82028 -58.53016 86 ft 9 kts 291°
2026-05-03 20:24 -34.82014 -58.53077 84 ft 14 kts 284°
2026-05-03 20:24 -34.81977 -58.53272 86 ft 19 kts 283°
2026-05-03 20:24 -34.81956 -58.53377 83 ft 19 kts 283°
2026-05-03 20:24 -34.81932 -58.53494 84 ft 0 kts 286°
2026-05-03 20:25 -34.81925 -58.53522 82 ft 7 kts 286°
2026-05-03 20:25 -34.81904 -58.53598 86 ft 12 kts 296°
2026-05-03 20:26 -34.81832 -58.53671 87 ft 15 kts 332°
2026-05-03 20:26 -34.81737 -58.53735 85 ft 13 kts 318°
2026-05-03 20:26 -34.81709 -58.53828 85 ft 12 kts 262°
2026-05-03 20:26 -34.81731 -58.53904 84 ft 9 kts 243°
2026-05-03 20:27 -34.81763 -58.53983 87 ft 12 kts 243°
2026-05-03 20:27 -34.81788 -58.54053 85 ft 0 kts 252°
2026-05-03 20:27 -34.81789 -58.54057 86 ft 2 kts 252°
2026-05-03 20:27 -34.81793 -58.54100 86 ft 8 kts 265°
2026-05-03 20:28 -34.81785 -58.54169 83 ft 10 kts 276°
2026-05-03 20:28 -34.81781 -58.54216 83 ft 0 kts 276°
2026-05-03 20:29 -34.81780 -58.54232 83 ft 6 kts 276°
2026-05-03 20:29 -34.81771 -58.54313 83 ft 13 kts 278°
2026-05-03 20:30 -34.81755 -58.54366 87 ft 4 kts 317°
2026-05-03 20:30 -34.81727 -58.54375 87 ft 4 kts 360°
2026-05-03 20:30 -34.81687 -58.54369 84 ft 7 kts 10°
2026-05-03 20:30 -34.81670 -58.54365 85 ft 2 kts 12°
2026-05-03 20:31 -34.81656 -58.54361 83 ft 0 kts 12°
2026-05-03 20:31 -34.81655 -58.54361 83 ft 1 kts 12°
2026-05-03 20:31 -34.81649 -58.54359 82 ft 0 kts 12°
2026-05-03 20:32 -34.81646 -58.54358 86 ft 1 kts 12°
2026-05-03 20:32 -34.81645 -58.54358 86 ft 0 kts 12°